Home   Weather   Rietberg   Past weeks

Flag for Germany Past Weather in Rietberg, North Rhine-Westphalia, Germany — Yesterday and Last 2 Weeks

Now
72 °F

Passing clouds.


Feels Like: 77 °F
Forecast: 53 / 79 °F
Wind: 6 mph from Northeast

Location: Paderborn / Lippstadt

Current Time: Aug 30, 2016 at 5:09:34 PM

Latest Report: Aug 30, 2016 at 4:20 PM


Visibility: N/A

Pressure: 30.27 "Hg

Humidity: 38%

Dew Point: 45 °F

Location of RietbergLocation

Past Weather in Rietberg — Graph

°F

Rietberg Temperature Yesterday

Maximum temperature yesterday: 68 °F (at 4:20 PM)
Minimum temperature yesterday: 57 °F (at 5:50 AM)
Average temperature yesterday: 63 °F

High & Low Weather Summary for the Past Weeks

 TemperatureHumidityPressure
High91 °F (Aug 25, 4:20 PM)100% (Aug 27, 5:20 AM)30.36 "Hg (Aug 27, 5:20 AM)
Low46 °F (Aug 16, 6:50 AM)17% (Aug 25, 4:50 PM)29.80 "Hg (Aug 18, 3:50 PM)
Average68 °F63%30.06 "Hg
* Reported Aug 15 3:20 PM — Aug 30 3:50 PM, Rietberg, Weather by CustomWeather, © 2016

Note: Actual official high and low records may vary slightly from our data, if they occured in-between our weather recording intervals... More about our weather records

Advertising

Rietberg Weather History for the Previous 24 Hours

Scroll right to see more
 ConditionsComfort  
Time TempWeatherWind HumidityBarometerVisibility
3:50 PM
Tue, Aug 30
72 °FPassing clouds.6 mph41%30.27 "HgN/A
3:20 PM72 °FPassing clouds.7 mph41%30.30 "HgN/A
2:50 PM70 °FPassing clouds.5 mph43%30.30 "HgN/A
2:20 PM72 °FPassing clouds.3 mph47%30.30 "HgN/A
1:50 PM70 °FPassing clouds.3 mph43%30.30 "HgN/A
1:20 PM68 °FPassing clouds.2 mph46%30.33 "HgN/A
12:50 PM68 °FPassing clouds.2 mph49%30.33 "HgN/A
12:20 PM68 °FPassing clouds.5 mph53%30.33 "HgN/A
11:50 AM66 °FSunny.2 mph52%30.33 "Hg10 mi
11:20 AM66 °FPassing clouds.2 mph56%30.33 "HgN/A
10:50 AM64 °FPassing clouds.2 mph60%30.33 "HgN/A
10:20 AM63 °FPassing clouds.2 mph68%30.33 "HgN/A
9:50 AM61 °FPassing clouds.1 mph77%30.33 "HgN/A
9:20 AM59 °FSunny.2 mph82%30.30 "Hg10 mi
8:50 AM57 °FSunny.1 mph88%30.30 "Hg10 mi
8:20 AM55 °FSunny.1 mph88%30.30 "Hg10 mi
7:50 AM52 °FSunny.1 mph94%30.30 "Hg10 mi
7:20 AM50 °FClear.1 mph94%30.30 "Hg10 mi
6:50 AM50 °FClear.1 mph94%30.27 "Hg10 mi
6:20 AM50 °FClear.1 mph94%30.27 "Hg10 mi
5:50 AM52 °FClear.2 mph94%30.27 "Hg10 mi
5:20 AM52 °FClear.5 mph94%30.27 "Hg10 mi
4:50 AM52 °FPassing clouds.2 mph94%30.27 "HgN/A
4:20 AM54 °FPassing clouds.3 mph94%30.27 "HgN/A
3:50 AM54 °FPassing clouds.3 mph94%30.27 "HgN/A
3:20 AM54 °FPassing clouds.2 mph88%30.27 "HgN/A
2:50 AM55 °FClear.2 mph88%30.27 "Hg10 mi
2:20 AM55 °FPassing clouds.1 mph88%30.24 "HgN/A
1:50 AM57 °FPassing clouds.2 mph88%30.24 "HgN/A
1:20 AM57 °FPassing clouds.1 mph82%30.27 "HgN/A
12:50 AM57 °FPassing clouds.2 mph88%30.24 "HgN/A
12:20 AM59 °FPassing clouds.1 mph82%30.24 "HgN/A
11:50 PM
Mon, Aug 29
61 °FPassing clouds.3 mph77%30.24 "HgN/A
11:20 PM61 °FPassing clouds.2 mph77%30.24 "HgN/A
10:50 PM63 °FPassing clouds.6 mph73%30.21 "HgN/A
10:20 PM63 °FPassing clouds.2 mph73%30.21 "HgN/A
9:50 PM63 °FPassing clouds.1 mph73%30.21 "HgN/A
9:20 PM63 °FPassing clouds.2 mph73%30.18 "HgN/A
8:50 PM63 °FScattered clouds.2 mph73%30.18 "HgN/A
8:20 PM64 °FScattered clouds.5 mph68%30.15 "HgN/A
7:50 PM64 °FScattered clouds.5 mph68%30.15 "HgN/A
7:20 PM66 °FScattered clouds.6 mph64%30.15 "HgN/A
6:50 PM66 °FPartly sunny.6 mph64%30.15 "HgN/A
6:20 PM68 °FBroken clouds.8 mph60%30.12 "HgN/A
5:50 PM68 °FBroken clouds.5 mph64%30.12 "HgN/A
5:20 PM66 °FBroken clouds.6 mph73%30.12 "HgN/A
Weather by CustomWeather, © 2016

See weather overviewHow to use our weather pages